Location: Ashtead
(51.3000°N, 0.3000°W)
Time: 04:26:28
(UTC+00:00)

Cosmos 1833 - Pass Details

Date: 26 September 2023
Orbit: 833 x 865 km, 70.9° (Epoch: 29 November)

Event Time Altitude Azimuth Distance (km) Brightness Sun altitude
Exits shadow 04:50:01 - 218° (SW) 2,875 6.5 -10.6°
Reaches altitude 10° 04:51:07 10° 220° (SW) 2,455 6.2 -10.5°
Maximum altitude 04:56:44 68° 303° (WNW) 902 4.2 -9.6°
Drops below altitude 10° 05:02:21 10° 27° (NNE) 2,456 7.2 -8.7°
Sets 05:04:49 0° 30° (NNE) 3,393 8.0 -8.4°
